Volver al catálogo

NOAA 16 DEB

ActivoPO
NORAD 41659·DEBRIS·🇺🇸 United States

Lanzado Sep 21, 2000 desde Vandenberg Space Force Base

Loading…

Próximos Pases (próximas 24 horas)

TLE

ActualizadoSource: Space-Track

Época: Sep 13, 2026, 05:38 UTC

1 41659U 00055NY  26256.23532111  .00006034  00000-0  15418-2 0  9998
2 41659  98.8784  45.7413 0012140 218.4360 141.5969 14.50806108540059

Sigue NOAA 16 DEB en tiempo real con AllMySat

Download on the App Store